Location: Chandrammap?lem
(16.9200°N, 81.0051°E)
Time: 02:57:10
(UTC+00:00)

USA 229 - Pass Details

Date: 29 May 2024
Orbit: 890 x 1322 km, 63.4° (Epoch: 18 May)

Event Time Altitude Azimuth Distance (km) Brightness Sun altitude
Rises 15:24:56 0° 335° (NNW) 4,171 7.7 -29.8°
Reaches altitude 10° 15:27:39 10° 336° (NNW) 3,247 6.9 -30.3°
Maximum altitude 15:35:40 88° 65° (ENE) 1,315 4.0 -31.8°
Enters shadow 15:36:21 78° 145° (SE) 1,342 3.9 -31.9°
